Location: Eschentzwiller
(47.7125°N, 7.3981°E)
Time: 00:36:18
(UTC+00:00)

NOSS 3-3 (A) - Pass Details

Date: 27 October 2020
Orbit: 826 x 1387 km, 63.4° (Epoch: 22 November)

Event Time Altitude Azimuth Distance (km) Brightness Sun altitude
Rises 17:43:02 0° 190° (S) 3,397 7.0 -14.5°
Reaches altitude 10° 17:45:32 10° 182° (S) 2,505 6.2 -14.9°
Maximum altitude 17:50:48 38° 116° (ESE) 1,387 4.4 -15.8°
Enters shadow 17:54:20 21° 63° (ENE) 2,035 5.1 -16.4°
